OK6FS-6 Weather Reports


time (UTC)temp
F
wind
direction
speed
knots
gust
knots
rain 1hr
in
rain 24hr
in
rain mn
in
humidity
%
barometer
mb
20260506001832 64 315 0.0 0.0 0.00 0.00 0.00 56 1008.7
20260506000629 64 288 1.7 2.6 0.00 0.00 0.00 56 1008.6
20260505235458 64 299 0.0 1.7 0.00 0.00 0.00 56 1008.5
20260505234244 63 231 0.0 0.9 0.00 0.00 0.00 56 1008.4
20260505233032 64 228 0.9 1.7 0.00 0.00 0.00 56 1008.3
20260505231849 64 315 0.0 0.0 0.00 0.00 0.00 56 1008.1
20260505230641 64 360 0.0 0.9 0.00 0.00 0.00 56 1007.9
20260505225423 64 218 0.9 1.7 0.00 0.00 0.00 55 1007.8
20260505224301 64 25 0.9 1.7 0.00 0.00 0.00 55 1007.7
20260505223028 65 16 0.9 1.7 0.00 0.00 0.00 55 1007.7
20260505221916 65 21 0.0 1.7 0.00 0.00 0.00 55 1007.7
20260505220633 65 294 0.9 2.6 0.00 0.00 0.00 55 1007.7
20260505215440 65 170 1.7 3.5 0.00 0.00 0.00 54 1007.7
20260505214236 65 349 0.9 3.5 0.00 0.00 0.00 54 1007.5
20260505213043 65 63 1.7 3.5 0.00 0.00 0.00 55 1007.4
20260505211831 65 62 1.7 3.5 0.00 0.00 0.00 54 1007.3
20260505210637 65 351 1.7 4.3 0.00 0.00 0.00 54 1007.3
20260505205444 65 66 2.6 5.2 0.00 0.00 0.00 54 1007.2
20260505204246 65 82 2.6 3.5 0.00 0.00 0.00 54 1007.2
20260505203027 65 64 3.5 5.2 0.00 0.00 0.00 53 1007.1
20260505201834 66 177 2.6 4.3 0.00 0.00 0.00 52 1007.1
20260505200631 67 79 1.7 3.5 0.00 0.00 0.00 51 1007.0
20260505195438 67 61 2.6 4.3 0.00 0.00 0.00 51 1007.1
20260505194243 68 50 1.7 4.3 0.00 0.00 0.00 50 1007.1
20260505193029 68 53 2.6 4.3 0.00 0.00 0.00 50 1007.0
20260505191836 68 80 3.5 7.8 0.00 0.00 0.00 50 1007.0
20260505190624 68 95 2.6 6.1 0.00 0.00 0.00 49 1006.9
20260505185431 69 72 3.5 8.7 0.00 0.00 0.00 49 1006.9
20260505184229 69 99 2.6 4.3 0.00 0.00 0.00 48 1006.8
20260505183036 70 65 3.5 6.1 0.00 0.00 0.00 47 1006.8
20260505181843 70 67 3.5 5.2 0.00 0.00 0.00 47 1006.7
20260505180621 70 110 2.6 5.2 0.00 0.00 0.00 47 1006.6
20260505175438 71 120 4.3 7.0 0.00 0.00 0.00 46 1006.6
20260505174235 72 114 4.3 7.0 0.00 0.00 0.00 45 1006.5
20260505173043 73 135 3.5 5.2 0.00 0.00 0.00 44 1006.6
20260505171830 73 319 4.3 9.6 0.00 0.00 0.00 43 1006.5
20260505170638 74 190 7.0 10.4 0.00 0.00 0.00 42 1006.6
20260505165435 75 191 6.1 11.3 0.00 0.00 0.00 42 1006.7
20260505164232 75 172 5.2 8.7 0.00 0.00 0.00 41 1006.7
20260505163040 76 149 5.2 8.7 0.00 0.00 0.00 39 1006.6
20260505161827 77 211 4.3 6.1 0.00 0.00 0.00 39 1006.6
20260505160634 78 172 4.3 7.8 0.00 0.00 0.00 37 1006.5
20260505153037 81 155 4.3 7.8 0.00 0.00 0.00 35 1006.6
20260505151834 81 28 4.3 11.3 0.00 0.00 0.00 33 1006.7
20260505150651 82 148 5.2 8.7 0.00 0.00 0.00 32 1006.8
20260505140626 82 130 4.3 7.8 0.00 0.00 0.00 29 1007.7
20260505124231 81 25 3.5 6.1 0.00 0.00 0.00 32 1009.0
20260505123039 81 160 3.5 4.3 0.00 0.00 0.00 33 1009.2
20260505121826 81 198 5.2 8.7 0.00 0.00 0.00 32 1009.4
20260505120632 81 116 3.5 5.2 0.00 0.00 0.00 33 1009.5
20260505115440 80 130 3.5 5.2 0.00 0.00 0.00 35 1009.6
20260505114227 79 111 3.5 6.1 0.00 0.00 0.00 37 1009.8
20260505113034 79 12 2.6 4.3 0.00 0.00 0.00 38 1010.0
20260505111842 78 151 2.6 6.1 0.00 0.00 0.00 36 1010.2
20260505110629 78 175 4.3 7.0 0.00 0.00 0.00 37 1010.4
20260505101829 76 199 2.6 5.2 0.00 0.00 0.00 39 1010.9
20260505100636 76 213 3.5 7.8 0.00 0.00 0.00 38 1011.0
20260505095433 77 153 3.5 4.3 0.00 0.00 0.00 34 1011.1
20260505094242 79 93 2.6 4.3 0.00 0.00 0.00 33 1011.2
20260505093028 79 69 2.6 3.5 0.00 0.00 0.00 34 1011.3
20260505091826 77 131 3.5 5.2 0.00 0.00 0.00 33 1011.4
20260505090633 77 193 2.6 4.3 0.00 0.00 0.00 33 1011.6
20260505085431 76 42 1.7 1.7 0.00 0.00 0.00 35 1011.6
20260505084228 73 185 2.6 4.3 0.00 0.00 0.00 37 1011.9
20260505083046 74 73 2.6 6.1 0.00 0.00 0.00 37 1011.8
20260505081832 73 14 2.6 3.5 0.00 0.00 0.00 36 1011.9
20260505080640 75 27 3.5 3.5 0.00 0.00 0.00 34 1012.1
20260505075457 75 170 1.7 2.6 0.00 0.00 0.00 37 1012.1
20260505074245 72 181 1.7 3.5 0.00 0.00 0.00 39 1012.2
20260505073022 74 155 1.7 3.5 0.00 0.00 0.00 39 1012.3
20260505071826 74 41 2.6 3.5 0.00 0.00 0.00 40 1012.1
20260505070633 70 9 0.9 1.7 0.00 0.00 0.00 42 1012.2
20260505065440 70 33 2.6 3.5 0.00 0.00 0.00 41 1012.3
20260505064227 69 178 2.6 5.2 0.00 0.00 0.00 42 1012.3
20260505063024 66 237 2.6 3.5 0.00 0.00 0.00 47 1012.3
20260505061842 64 34 2.6 3.5 0.00 0.00 0.00 49 1012.4
20260505060628 63 140 1.7 3.5 0.00 0.00 0.00 49 1012.5
20260505055435 62 252 0.9 1.7 0.00 0.00 0.00 50 1012.5
20260505054223 61 17 0.9 0.9 0.00 0.00 0.00 50 1012.4
20260505053030 60 9 0.0 0.0 0.00 0.00 0.00 53 1012.3
20260505051847 59 17 0.9 1.7 0.00 0.00 0.00 53 1012.2
20260505050644 58 0.0 0.0 0.00 0.00 0.00 55 1012.1
20260505040640 54 0.0 0.0 0.00 0.00 0.00 59 1012.0
20260505035437 54 0.0 0.0 0.00 0.00 0.00 58 1012.1
20260505034305 54 0.0 0.0 0.00 0.00 0.00 57 1011.9
20260505033032 55 0.0 0.0 0.00 0.00 0.00 57 1012.0
20260505031840 55 0.0 0.0 0.00 0.00 0.00 57 1012.1
20260505030647 55 0.0 0.0 0.00 0.00 0.00 56 1012.2
20260505025434 56 0.0 0.0 0.00 0.00 0.00 55 1012.3
20260505024242 56 0.0 0.0 0.00 0.00 0.00 55 1012.3
20260505023029 56 0.0 0.0 0.00 0.00 0.00 55 1012.5
20260505021856 56 0.0 0.0 0.00 0.00 0.00 55 1012.4
20260505020644 57 27 0.9 1.7 0.00 0.00 0.00 53 1012.6
20260505015432 57 0.0 0.0 0.00 0.00 0.00 53 1012.6
20260505014240 57 298 0.9 0.9 0.00 0.00 0.00 53 1012.6
20260505013047 59 0.0 0.0 0.00 0.00 0.00 52 1012.5
20260505011854 59 338 0.0 0.0 0.00 0.00 0.00 51 1012.5
20260505010641 59 0.0 0.0 0.00 0.00 0.00 51 1012.5
20260505005428 60 0.0 0.0 0.00 0.00 0.00 49 1012.6
20260505004225 61 0.0 0.0 0.00 0.00 0.00 48 1012.6
20260505003053 62 0.0 0.0 0.00 0.00 0.00 47 1012.7